TimeEDT,TemperatureF,Dew PointF,Humidity,Sea Level PressureIn,VisibilityMPH,Wind Direction,Wind SpeedMPH,Gust SpeedMPH,PrecipitationIn,Events,Conditions,WindDirDegrees,DateUTC
12:54 AM,84.0,71.1,65,29.91,10.0,WSW,8.1,-,N/A,,Clear,240,2013-07-21 04:54:00
1:54 AM,82.9,71.1,67,29.91,10.0,SW,8.1,-,N/A,,Clear,230,2013-07-21 05:54:00
2:54 AM,82.0,72.0,71,29.91,10.0,WSW,5.8,-,N/A,,Clear,250,2013-07-21 06:54:00
3:54 AM,81.0,72.0,74,29.90,10.0,WSW,5.8,-,N/A,,Clear,250,2013-07-21 07:54:00
4:54 AM,80.1,72.0,76,29.90,10.0,WSW,4.6,-,N/A,,Clear,250,2013-07-21 08:54:00
5:54 AM,78.1,72.0,81,29.91,10.0,SW,8.1,-,N/A,,Partly Cloudy,230,2013-07-21 09:54:00
6:54 AM,80.1,73.0,79,29.92,10.0,SW,8.1,-,N/A,,Scattered Clouds,230,2013-07-21 10:54:00
7:39 AM,82.0,73.0,74,29.93,10.0,West,5.8,-,N/A,,Mostly Cloudy,260,2013-07-21 11:39:00
7:54 AM,82.0,73.0,74,29.93,10.0,West,8.1,-,N/A,,Overcast,270,2013-07-21 11:54:00
8:54 AM,82.9,72.0,69,29.94,10.0,West,11.5,-,N/A,,Overcast,270,2013-07-21 12:54:00
9:54 AM,84.9,72.0,65,29.93,10.0,West,10.4,-,N/A,,Mostly Cloudy,270,2013-07-21 13:54:00
10:54 AM,87.1,71.1,59,29.94,10.0,West,10.4,-,N/A,,Mostly Cloudy,260,2013-07-21 14:54:00
11:18 AM,87.1,72.0,61,29.95,10.0,Variable,6.9,-,N/A,,Scattered Clouds,0,2013-07-21 15:18:00
11:47 AM,87.1,71.1,59,29.95,10.0,WNW,6.9,-,N/A,,Mostly Cloudy,290,2013-07-21 15:47:00
11:54 AM,87.1,71.1,59,29.95,10.0,WSW,8.1,-,N/A,,Mostly Cloudy,250,2013-07-21 15:54:00
12:54 PM,84.9,72.0,65,29.95,10.0,SSW,11.5,-,N/A,,Mostly Cloudy,200,2013-07-21 16:54:00
1:07 PM,84.0,71.1,65,29.96,10.0,SSW,15.0,-,N/A,,Mostly Cloudy,210,2013-07-21 17:07:00
1:33 PM,84.9,72.0,65,29.96,10.0,SSW,13.8,-,N/A,,Mostly Cloudy,200,2013-07-21 17:33:00
1:54 PM,84.9,72.0,65,29.95,10.0,SSW,15.0,-,N/A,,Mostly Cloudy,210,2013-07-21 17:54:00
2:54 PM,87.1,72.0,61,29.94,10.0,SSW,13.8,-,N/A,,Clear,200,2013-07-21 18:54:00
3:54 PM,86.0,72.0,63,29.91,10.0,SSW,15.0,-,N/A,,Clear,210,2013-07-21 19:54:00
4:54 PM,86.0,72.0,63,29.90,10.0,SW,17.3,23.0,N/A,,Clear,220,2013-07-21 20:54:00
5:54 PM,82.9,71.1,67,29.89,10.0,SSW,17.3,-,N/A,,Partly Cloudy,210,2013-07-21 21:54:00
6:21 PM,81.0,71.1,72,29.91,10.0,SSW,11.5,-,N/A,,Mostly Cloudy,210,2013-07-21 22:21:00
6:31 PM,81.0,71.1,72,29.91,10.0,SW,8.1,-,N/A,,Scattered Clouds,220,2013-07-21 22:31:00
6:54 PM,81.0,70.0,69,29.92,10.0,SW,9.2,-,N/A,,Partly Cloudy,220,2013-07-21 22:54:00
7:54 PM,80.1,71.1,74,29.92,10.0,SSW,9.2,-,N/A,,Clear,210,2013-07-21 23:54:00
8:54 PM,78.1,71.1,79,29.93,10.0,SW,8.1,-,0.00,Rain,Light Rain,230,2013-07-22 00:54:00
9:21 PM,78.1,72.0,81,29.97,10.0,WNW,11.5,24.2,0.01,Rain,Light Rain,290,2013-07-22 01:21:00
9:37 PM,77.0,71.1,82,29.96,8.0,WNW,11.5,21.9,0.01,Rain,Light Rain,290,2013-07-22 01:37:00
9:54 PM,77.0,71.1,82,29.94,9.0,WNW,10.4,19.6,0.02,Rain,Light Rain,290,2013-07-22 01:54:00
10:54 PM,77.0,71.1,82,29.91,10.0,Calm,Calm,-,0.05,Rain,Light Rain,0,2013-07-22 02:54:00
11:54 PM,77.0,71.1,82,29.93,10.0,SW,3.5,-,0.00,,Clear,230,2013-07-22 03:54:00